Location: Home
(42.5358°N, 72.7383°W)
Time: 18:10:35
(UTC-05:00)

Tiros 1 - Pass Details

Date: 06 December 2021
Orbit: 629 x 664 km, 48.4° (Epoch: 18 January)

Event Time Altitude Azimuth Distance (km) Brightness Sun altitude
Rises 22:54:50 0° 296° (WNW) 2,951 - -67.8°
Reaches altitude 10° 22:57:10 10° 293° (WNW) 2,044 - -68.0°
Maximum altitude 23:01:50 64° 212° (SSW) 718 - -68.4°
Drops below altitude 10° 23:06:32 10° 131° (SE) 2,057 - -68.7°
Sets 23:08:53 0° 129° (SE) 2,971 - -68.9°
